Regional Weather Roundup
Issued by NWS

Home | Current Version | Previous Version | Text Only | Print | Product List | Glossary Off
Versions: 1 2 3 4 5 6 7 8 9 10 11 12 13 14 15 16 17 18 19 20 21 22 23 24 25 26 27 28 29 30 31 32 33 34 35 36 37 38 39 40 41 42 43 44 45 46 47 48 49 50

000
ASUS45 KSLC 211210
RWRUT

UTAH REGIONAL WEATHER ROUNDUP
NATIONAL WEATHER SERVICE SALT LAKE CITY UT
600 AM MDT THU AUG 21 2014

UTZ001>011-023>025-211300-

NORTHERN UTAH

CITY           SKY/WX    TMP DP  RH WIND       PRES   REMARKS
HILL AFB       CLOUDY    62  51  66 E8        30.06R
LOGAN          CLOUDY    59  56  89 CALM      30.06R
OGDEN          CLOUDY    61  55  81 W7        30.04R
PROVO AIRPORT  MOCLDY    57  50  77 SE7       30.08S
SALT LAKE CITY LGT RAIN  67  52  58 SE7       30.01S
VERNAL         PTCLDY    55  49  80 W3        30.15R
WENDOVER       CLOUDY    70  50  49 NE13      30.01R
HEBER CITY     MOCLDY    52  50  93 CALM      30.14S
WEST JORDAN    CLOUDY    66  57  72 S17G23    30.04S

$$

UTZ012>022-026-027-211300-

SOUTHERN UTAH

CITY           SKY/WX    TMP DP  RH WIND       PRES   REMARKS
BRYCE CANYON   MOCLDY    42  40  92 CALM      30.29S
CEDAR CITY     CLEAR     55  46  71 S5        30.15S
MILFORD        PTCLDY    60  46  59 SW14      30.10S
MOAB/CYNLANDS  CLEAR     56  54  93 CALM      30.08S
PRICE          PTCLDY    53  47  79 NE6       30.16R
ST GEORGE      PTSUNNY   68  55  64 CALM      30.02S
KANAB            N/A     57  48  72 N7        30.17R

$$

REGIONAL REPORTS     COLORADO/ARIZONA

CITY           SKY/WX    TMP DP  RH WIND       PRES   REMARKS
CRAIG, CO      MOCLDY    53  51  93 E5        30.20S
GRAND JUNCTION PTCLDY    55  49  80 E7        30.13R
RIFLE          CLEAR     54  47  77 E5        30.18R
MONTROSE       CLEAR     54  46  74 SE7       30.20S
CORTEZ         CLEAR     49  44  83 CALM      30.20R
PAGE, AZ       MOCLDY    66  50  56 CALM      30.09R
GRAND CANYON     N/A    N/A N/A N/A MISG        N/A
KINGMAN        CLOUDY    71  52  50 SE10      30.03R
FLAGSTAFF      PTCLDY    47  44  90 S3        30.26F

$$

REGIONAL REPORTS    NEVADA/IDAHO/WYOMING

CITY           SKY/WX    TMP DP  RH WIND       PRES   REMARKS
LAS VEGAS, NV  PTCLDY    77  45  32 SW8       29.89S
ELY            MOCLDY    56  39  53 SW10      30.16R
ELKO           MOCLDY    65  46  50 NE8       30.02S
POCATELLO, ID  LGT RAIN  57  56  96 S5        30.06S
BURLEY         CLOUDY    58  54  86 SE5       30.00F
EVANSTON, WY   CLOUDY    50  48  93 SW9       30.18R
ROCK SPRINGS   NOT AVBL

$$


USA.gov is the U.S. government's official web portal to all federal, state and local government web resources and services.